STARLINK-11552, 62907

Orbit data source: Space-Track

STARLINK-11552, 62907 is a payload satellite owned by SpaceX/Seattle (US) in LEO that was launched on Sat, 08 Feb 2025 UTC via an FALCON 9 launch vehicle from the Air Force Eastern Test Range (AFETR). Payload-class satellites include a variety of spacecraft equipped with specific instruments for various scientific and technological missions. These include communications satellites like Starlink; space stations such as the ISS; scientific satellites like the Hubble; Earth observation satellites from companies like Planet Labs, Umbra, and HawkEye 360; GPS; miniature CubeSats for education and research; and military/defense satellites.

Loading next visibility...
Identifier
62907, 2025-027A
Orbit
LEO
Last TLE update
1 day ago
Origin
Manufacturer
SpaceX/Seattle
Mission
Operational Commercial Communications
Bus & Motor
STARLINK V2M, Unknown motor
Mass
730 kg wet, ~700 kg dry
Launch date (UTC)
2025-02-08 (5 months ago)
Launch vehicle
FALCON 9
Launch site
Air Force Eastern Test Range (AFETR)
Object type
Payload
Rocket body
Debris
Shape & HBR
Box + 2 Pan, 29 m
Radar Cross Section
36.964 m², Large (>1 m²)

Expand to show TLE details & history

TLE from 1 day ago
0 STARLINK-11552
1 62907U 25027A   25182.99884928  .00141382  00000-0  10850-2 0  9990
2 62907  43.0019  58.8646 0002448 263.6414  96.4175 15.70875350 23765
Epoch: 2025-07-01T23:58Z
TLE epoch observation values (Epoch: 2025-07-01T23:58:20.577Z)
Latitude
-0.00003°
Longitude
138.99258°
Altitude
356.35 km
Speed
7.697 km/s
True Right ascension
03h 55m 27s
True Declination
0° 00' 00"
Sunlit
Object was in daylight at epoch
Visualization orbit readout
Latitude
-35.61203°
Longitude
1.24576°
Altitude
364.283 km
Speed
7.692 km/s
Apparent Right ascension
22h 41m 48s
Apparent Declination
-79° 26' 05"
Sunlit
Object is in full shadow
Visualization observer readout
Local Sidereal Time
17:43:53
Azimuth
167.324° S
Elevation
-36.381°
Doppler factor
1
Orbital elements
Apogee altitude
360.024 km
Perigee altitude
356.726 km
Semi-major axis
6,736.512 km
Eccentricity
0.00024
Inclination
43.0019°
RAAN
58.8646°
Arg. of periapsis
263.6414°
True anomaly
Unknown
Mean anomaly
96.4175°
Eccentric anomaly
Unknown
Mean motion
3.92546 °/min
Orbital period
91.71 mins
BSTAR
0.001085
Loading maneuver chart data...
Loading SW <> Apogee altitude chart data...
Loading historical data...
Loading historical data...
Loading historical data...
Loading historical data...
Loading historical data...
Loading historical data...
Loading historical data...

STARLINK-11552 Visibility forecast

Observer location: undefined°, undefined°

Span
Click to sort rows by Start time (UTC) header in descending order
Start Az.
Max El. time (UTC)
Max El. Az.
Max El.
End time (UTC)
End Az.
4 mins2025-07-03 18:55:17.947Z225.287° WSW2025-07-03 18:57:17.947Z166.196° S35.598°2025-07-03 18:59:17.947Z86.924° E
4 mins2025-07-03 20:32:17.947Z289.136° WNW2025-07-03 20:33:17.947Z331.9° NNW36.852°2025-07-03 20:36:17.947Z68.46° E
4 mins2025-07-03 22:08:17.947Z301.56° NW2025-07-03 22:10:17.947Z43.545° NE34.993°2025-07-03 22:12:17.947Z84.296° E
4 mins2025-07-03 23:44:17.947Z270.352° WNW2025-07-03 23:46:17.947Z178.414° S34.23°2025-07-03 23:48:17.947Z133.008° SE
|